sat.trackr.live / text

‹ back to catalog

GSAT0226 (GALILEO 31)

NORAD 61183 · 2024-167B

PAYLOAD ACTIVE UNKNOWN

§ Identity

Operator
Country
ESA
Launch date
2024-09-17
Launch site
AFETR
Launch vehicle
Mass (kg)
RCS (m²)

Purposes: earth_obs, nav

External: N2YO · Heavens-Above · Gunter

§ Orbital elements

Epoch: 2026-09-19T03:37:44.620896Z

Period
844.70 min
Inclination
55.1639°
Eccentricity
0.0002248
Mean motion
1.70473729 rev/d
Perigee alt
23,215.6 km
Apogee alt
23,228.9 km
Semi-major
29,600.4 km
B*
0.0000e+0
RAAN
218.7444°
Arg perigee
247.7759°
Mean anomaly
240.1560°
Rev number
1,245

§ Raw data

GSAT0226 (GALILEO 31)1 61183U 24167B   26262.15121089  .00000017  00000+0  00000+0 0  99902 61183  55.1639 218.7444 0002248 247.7759 240.1560  1.70473729 12457

JSON: /api/v1/satellites/61183 · /tle

For live sub-satellite position, see the globe view (requires WebGL).

§ Visibility from observer

Set your observer location to see the next 7 days of passes ≥ 10°. The values pass through the URL so the page stays shareable.

No JS? Fill the form by hand. The geolocation button needs JavaScript.